Tracking 27086 objects as of 23-Mar-2023
HD Live streaming from Space Station
objects crossing your sky now

SL-16 DEB

Track SL-16 DEB now!
10-day predictions


NORAD ID: 22420
Int'l Code: 1992-093DM
Perigee: 582.3 km
Apogee: 664.8 km
Inclination: 71.0 °
Period: 97.0 minutes
Semi major axis: 6994 km
RCS: 0.065 m2 (small)
Launch date: December 25, 1992
Source: Commonwealth of Independent States (former USSR) (CIS)
Launch site: TYURATAM MISSILE AND SPACE COMPLEX (TTMTR)

Note: This is SATELLITE DEBRIS
Your satellite tracking list
Your tracking list is empty




NASA's NSSDC Master Catalog

Two Line Element Set (TLE):
1 22420U 92093DM  23080.87442035  .00008799  00000-0  10284-2 0  9999
2 22420  70.9867 126.7282 0059005 152.2510  20.3073 14.84095759589821
Source of the keplerian elements: AFSPC